Regional Weather Roundup
Issued by NWS

Home | Current Version | Previous Version | Graphics & Text | Print | Product List | Glossary Off
Versions: 1 2 3 4 5 6 7 8 9 10 11 12 13 14 15 16 17 18 19 20 21 22 23 24 25 26 27 28 29 30 31 32 33 34 35 36 37 38 39 40 41 42 43 44 45 46 47 48 49 50

619
ASUS43 KTOP 310108
RWRKS

WEATHER ROUNDUP FOR KANSAS
NATIONAL WEATHER SERVICE GOODLAND KS
800 PM CDT SAT JUL 30 2016

NOTE:  "FAIR" INDICATES FEW OR NO CLOUDS BELOW 12,000 FEET WITH NO
SIGNIFICANT WEATHER AND/OR OBSTRUCTIONS TO VISIBILITY.

KSZ001>006-013>018-027>032-041>047-310200-
NORTHWEST KANSAS

CITY           SKY/WX    TMP DP  RH WIND       PRES   REMARKS
GOODLAND       SUNNY     84  64  50 SE12      29.91S
HAYS           CLEAR     88  64  45 SE14      29.89R
HILL CITY      CLEAR     86  67  52 SE10      29.89S
RUSSELL        CLEAR     85  68  56 SE17      29.89S
$$

KSZ061>065-074>080-084>089-310200-
SOUTHWEST KANSAS

CITY           SKY/WX    TMP DP  RH WIND       PRES   REMARKS
DODGE CITY     CLEAR     87  67  51 SE17G25   29.89F
ELKHART          N/A     88  60  38 S14         N/A
GARDEN CITY    CLEAR     86  68  54 SE15      29.88S
GREAT BEND     CLEAR     84  68  58 SE16      29.89S
LIBERAL        CLEAR     91  59  33 S12       29.89R
PRATT          CLEAR     85  65  51 SE9       29.90F
$$

KSZ066>073-081>083-090>101-310200-
SOUTHEAST KANSAS

CITY           SKY/WX    TMP DP  RH WIND       PRES   REMARKS
CHANUTE        PTCLDY    83  72  69 S8        29.93S
COFFEYVILLE    CLEAR     83  70  64 S9        29.93S
HUTCHINSON     CLEAR     84  67  56 SE9       29.90F
MEDICINE LODGE   N/A     88  68  51 SE9G17    29.87F
NEWTON         CLEAR     82  71  69 SE9       29.93S
PARSONS        CLEAR     83  70  64 SE3       29.94F
WICHITA INTL   PTCLDY    86  71  60 SE13      29.91S
WICHITA JABRA  CLEAR     84  69  60 SE9       29.92S
WICHITA MCCONL CLEAR     85  70  60 S8        29.92R
WINFIELD       CLEAR     83  72  69 S9        29.92S
$$

KSZ007>012-019>026-033>040-048>060-102>105-310200-
NORTHEAST KANSAS

CITY           SKY/WX    TMP DP  RH WIND       PRES   REMARKS
CONCORDIA      CLEAR     80  69  69 SE7       29.92S
EMPORIA        CLEAR     83  69  62 SE7       29.93R
LAWRENCE       CLEAR     79  72  79 E5        29.94R
MANHATTAN      CLEAR     81  70  69 E6        29.92R
MARYSVILLE     CLEAR     77  68  73 E7        29.94R
OLATHE IND     CLEAR     82  69  64 E6        29.96R
OLATHE EXE     CLEAR     80  67  64 E6        29.96R
SALINA         CLEAR     87  68  52 SE12      29.90S
TOPEKA BILLARD CLEAR     80  69  69 E5        29.94R
TOPEKA FORBES  CLEAR     82  70  66 NE3       29.94R
$$




USA.gov is the U.S. government's official web portal to all federal, state and local government web resources and services.